[[{"header":{"parameterUnit":"m.s-1","parameterCategory":1,"la1":30.2991,"la2":30.254,"lo1":-89.0895,"lo2":-89.0444,"dy":0.0017,"dx":0.0017,"nx":28,"ny":28,"refTime":"2024-09-02T21:00:00:Z","depth":0,"parameterNumber":2,"parameterNumberName":"U-component_of_WINDS"},"data":[0,0,0,0,0,0,0,0,0,0,0,0,0,0,0,0,0,0,0,0,0,0,0,0,0,0,0,0,0,0,0,0,0,0,0,0,0,0,0,0,0,0,0,0,0,0,0,0,0,0,0,0,0,0,0,0,0,0,-3.4519,-3.452,0,-3.4572,-3.4572,-3.4573,-3.4533,-3.4531,-3.4529,-3.4527,-3.4583,-3.4586,-3.4589,0,0,0,0,0,0,0,0,0,0,0,0,0,-3.4387,-3.439,-3.4519,-3.452,-3.452,-3.4572,-3.4572,-3.4573,-3.4533,-3.4531,-3.4529,-3.4527,-3.4582,-3.4585,-3.4589,0,0,0,0,0,0,0,0,0,0,0,0,0,-3.4443,-3.4391,-3.4519,-3.4506,-3.4506,-3.4571,-3.4572,-3.4573,-3.4533,-3.4531,-3.4528,-3.4526,-3.4581,-3.4585,-3.459,-3.4671,0,0,-3.4604,-3.4606,0,0,0,0,0,0,0,0,-3.444,-3.4448,-3.4508,-3.4507,-3.4507,-3.4543,-3.4546,-3.4606,-3.4534,-3.4523,-3.4527,-3.4524,-3.4572,-3.4577,-3.4593,-3.4673,-3.4676,-3.4604,-3.4607,-3.4609,-3.461,0,0,0,0,0,0,0,-3.4436,-3.4445,-3.454,-3.4508,-3.4508,-3.4499,-3.4504,-3.4557,-3.4561,-3.4524,-3.4521,-3.4528,-3.4571,-3.4588,-3.4594,-3.4677,-3.4604,-3.4608,-3.4611,-3.4613,-3.4829,-3.4832,0,0,0,0,0,0,-3.4433,-3.4442,-3.4538,-3.4541,-3.4466,-3.4504,-3.4509,-3.4534,-3.4561,-3.4562,-3.453,-3.4525,-3.4582,-3.4588,-3.4595,-3.4693,-3.4609,-3.4613,-3.4616,-3.4826,-3.483,-3.4833,0,0,0,0,0,0,-3.443,-3.4442,-3.4536,-3.4491,-3.4502,-3.4509,-3.4537,-3.4536,-3.4553,-3.4565,-3.4566,-3.4546,-3.458,-3.4589,-3.4653,-3.4694,-3.4616,-3.462,-3.4823,-3.4827,-3.4831,-3.4887,0,0,0,0,0,0,-3.4427,-3.4441,-3.4471,-3.4492,-3.4505,-3.4591,-3.4539,-3.4539,-3.4561,-3.4556,-3.4581,-3.4583,-3.4578,-3.4646,-3.4657,-3.4699,-3.4623,-3.4819,-3.4825,-3.483,-3.4882,-3.4893,-3.4903,0,0,0,0,0,-3.4422,-3.4484,-3.4472,-3.4484,-3.4542,-3.4594,-3.4601,-3.4594,-3.4565,-3.4595,-3.4604,-3.4582,-3.4688,-3.4653,-3.4665,-3.4709,-3.4816,-3.4823,-3.483,-3.4877,-3.4891,-3.4903,0,0,0,0,0,0,-3.4467,-3.4486,-3.4474,-3.4544,-3.4568,-3.4587,-3.4624,-3.4609,-3.4642,-3.4635,-3.4627,-3.4633,-3.47,-3.4711,-3.4672,-3.479,-3.4748,-3.4757,-3.478,-3.4793,-3.4803,-3.4798,-3.4627,0,0,0,0,0,-3.4485,-3.4525,-3.454,-3.4601,-3.4614,-3.4618,-3.464,-3.4633,-3.4657,-3.4667,-3.4679,-3.4704,-3.4744,-3.4769,-3.4806,-3.4885,-3.489,-3.4921,-3.4932,-3.494,-3.4948,-3.4992,-3.5006,-3.4855,-3.4855,-3.4855,0,0,-3.4523,-3.4539,-3.4564,-3.4611,-3.4628,-3.467,-3.4626,-3.4672,-3.4703,-3.4674,-3.4734,-3.4746,-3.4773,-3.4845,-3.4877,-3.4856,-3.4991,-3.4949,-3.4956,-3.4958,-3.5,-3.5014,-3.5027,-3.4859,-3.4859,-3.4858,0,0,-3.4612,-3.4629,-3.4681,-3.47,-3.4727,-3.473,-3.4744,-3.4766,-3.4772,-3.4833,-3.4812,-3.4851,-3.4918,-3.4939,-3.4958,-3.5061,-3.5043,-3.5074,-3.5128,-3.5171,-3.5182,-3.5193,-3.5229,-3.5242,-3.5082,-3.5082,-3.5082,0,-3.4655,-3.4717,-3.4711,-3.4759,-3.4781,-3.4757,-3.4812,-3.4831,-3.4869,-3.4885,-3.4862,-3.4947,-3.4964,-3.5041,-3.5067,-3.5083,-3.5099,-3.5069,-3.5181,-3.5192,-3.5201,-3.5236,-3.525,-3.5086,-3.5085,-3.5085,-3.5084,0,-3.4769,-3.4813,-3.4853,-3.489,-3.4917,-3.4968,-3.4971,-3.4999,-3.4992,-3.4998,-3.5062,-3.5082,-3.5123,-3.5142,-3.5135,-3.5219,-3.5205,-3.5182,-3.5139,-3.5219,-3.5252,-3.5265,-3.5091,-3.5089,-3.5088,-3.5087,0,0,-3.4884,-3.492,-3.4935,-3.4952,-3.4983,-3.5017,-3.5069,-3.5109,-3.5133,-3.5162,-3.5206,-3.5265,-3.5245,-3.5267,-3.5263,-3.5301,-3.5381,-3.5273,-3.5274,-3.5292,-3.5476,-3.5492,-3.5507,-3.5371,-3.5373,-3.5375,-3.5474,0,-3.4974,-3.5062,-3.506,-3.5143,-3.5184,-3.5165,-3.521,-3.5235,-3.5243,-3.528,-3.529,-3.5332,-3.5302,-3.5316,-3.5353,-3.5364,-3.5418,-3.5357,-3.5411,-3.5413,-3.5402,-3.5524,-3.5541,-3.5632,-3.5486,-3.5488,-3.549,0,-3.509,-3.5123,-3.521,-3.5236,-3.5254,-3.5294,-3.5332,-3.5368,-3.5397,-3.54,-3.5427,-3.5418,-3.5472,-3.543,-3.5506,-3.5464,-3.5487,-3.5497,-3.55,-3.5503,-3.5454,-3.5529,-3.5661,-3.5674,-3.551,-3.5508,-3.5507,0,-3.5164,-3.5231,-3.5291,-3.5308,-3.534,-3.5369,-3.5385,-3.5411,-3.5436,-3.5471,-3.5487,-3.5528,-3.555,-3.5582,-3.5585,-3.5554,-3.5661,-3.5619,-3.5666,-3.5666,-3.5687,-3.5685,-3.5822,-3.5705,-3.5705,-3.5705,-3.5704,0,-3.5264,-3.5318,-3.5325,-3.5362,-3.5423,-3.5422,-3.5482,-3.5495,-3.552,-3.556,-3.5548,-3.5586,-3.5588,-3.5629,-3.5632,-3.5694,-3.5705,-3.571,-3.5709,-3.5709,-3.5709,-3.5722,-3.5715,-3.5708,-3.5707,-3.5707,-3.5706,0,-3.5355,-3.5363,-3.5428,-3.5455,-3.5463,-3.5506,-3.553,-3.5566,-3.5575,-3.5627,-3.5639,-3.5653,-3.57,-3.5707,-3.5762,-3.5765,-3.5839,-3.5833,-3.5829,-3.5828,-3.5874,-3.5869,-3.6023,-3.6044,-3.5914,-3.5916,-3.5917,0,-3.5417,-3.5458,-3.549,-3.5516,-3.5533,-3.5576,-3.5602,-3.5604,-3.5632,-3.567,-3.5702,-3.5749,-3.5785,-3.5862,-3.5877,-3.592,-3.5914,-3.5966,-3.592,-3.592,-3.5914,-3.5911,-3.5915,-3.5973,-3.5975,-3.5976,-3.5977,0,-3.5526,-3.5529,-3.5566,-3.5607,-3.5639,-3.5671,-3.5701,-3.5724,-3.573,-3.5763,-3.5811,-3.5839,-3.5897,-3.5943,-3.5986,-3.6004,-3.5992,-3.5992,-3.6005,-3.6004,-3.5999,-3.6002,-3.5851,-3.5987,-3.5986,-3.5986,-3.5985,-3.5985,-3.5604,-3.564,-3.5669,-3.5712,-3.5736,-3.5765,-3.5801,-3.5815,-3.5855,-3.5901,-3.5901,-3.5954,-3.5986,-3.6042,-3.6063,-3.6106,-3.6089,-3.6108,-3.6112,-3.6117,-3.6121,-3.5995,-3.6114,-3.6114,-3.6113,-3.6113,-3.6113,0,-3.5711,-3.573,-3.577,-3.5813,-3.5848,-3.5835,-3.5869,-3.5899,-3.5946,-3.5976,-3.6013,-3.607,-3.6115,-3.6136,-3.6182,-3.6212,-3.6208,-3.6224,-3.622,-3.6225,-3.6133,-3.6117,-3.6226,-3.6226,-3.6226,-3.6226,-3.6226,-3.6226,-3.5771,-3.5831,-3.5838,-3.5912,-3.593,-3.5982,-3.6002,-3.603,-3.6054,-3.6118,-3.6156,-3.6169,-3.6196,-3.6244,-3.6286,-3.6292,-3.6309,-3.6327,-3.6329,-3.6243,-3.6231,-3.622,-3.6205,-3.6331,-3.6331,-3.6417,-3.6418,-3.6419]},{"header":{"parameterUnit":"m.s-1","parameterCategory":1,"la1":30.2991,"la2":30.254,"lo1":-89.0895,"lo2":-89.0444,"dy":0.0017,"dx":0.0017,"nx":28,"ny":28,"refTime":"2024-09-02T21:00:00:Z","depth":0,"parameterNumber":3,"parameterNumberName":"V-component_of_WINDS"},"data":[0,0,0,0,0,0,0,0,0,0,0,0,0,0,0,0,0,0,0,0,0,0,0,0,0,0,0,0,0,0,0,0,0,0,0,0,0,0,0,0,0,0,0,0,0,0,0,0,0,0,0,0,0,0,0,0,0,0,2.9167,2.9167,0,2.9201,2.9201,2.9201,2.9279,2.928,2.9282,2.9284,2.931,2.9309,2.9308,0,0,0,0,0,0,0,0,0,0,0,0,0,2.9164,2.9163,2.9167,2.9167,2.9168,2.92,2.9201,2.9201,2.9278,2.928,2.9282,2.9284,2.931,2.9309,2.9308,0,0,0,0,0,0,0,0,0,0,0,0,0,2.9178,2.9163,2.9167,2.921,2.9215,2.92,2.9201,2.9201,2.9278,2.928,2.9283,2.9285,2.931,2.9309,2.9308,2.9252,0,0,2.9304,2.9304,0,0,0,0,0,0,0,0,2.9177,2.9178,2.9203,2.9207,2.9212,2.9238,2.921,2.9218,2.9277,2.9254,2.9284,2.9286,2.9283,2.9285,2.9285,2.9253,2.9254,2.9304,2.9304,2.9303,2.9303,0,0,0,0,0,0,0,2.9176,2.9177,2.918,2.9204,2.9209,2.9226,2.9231,2.9212,2.9254,2.9256,2.9262,2.9265,2.9286,2.9286,2.9287,2.9255,2.9304,2.9303,2.9302,2.9302,2.9179,2.9176,0,0,0,0,0,0,2.9169,2.9175,2.9179,2.9181,2.92,2.9224,2.923,2.9227,2.9255,2.9261,2.9263,2.9268,2.9287,2.9288,2.9288,2.9224,2.9303,2.9302,2.9301,2.9181,2.9178,2.9175,0,0,0,0,0,0,2.9169,2.9169,2.9178,2.918,2.9182,2.9222,2.9218,2.9226,2.9227,2.926,2.9267,2.9255,2.9289,2.9289,2.9261,2.9226,2.9301,2.93,2.9184,2.918,2.9177,2.9096,0,0,0,0,0,0,2.9169,2.9168,2.9149,2.9179,2.9182,2.9152,2.9216,2.9225,2.9225,2.9233,2.9255,2.9261,2.9291,2.9262,2.926,2.9226,2.9299,2.9188,2.9183,2.9178,2.9102,2.909,2.9079,0,0,0,0,0,2.9168,2.9122,2.9147,2.9147,2.9158,2.9149,2.9151,2.9189,2.9222,2.9202,2.9224,2.926,2.9231,2.9259,2.9257,2.9221,2.919,2.9184,2.9178,2.9107,2.9092,2.908,0,0,0,0,0,0,2.9083,2.9127,2.9155,2.9118,2.913,2.9163,2.9138,2.9172,2.9172,2.9179,2.9224,2.9228,2.9193,2.9205,2.9235,2.9169,2.9216,2.921,2.9162,2.9149,2.9138,2.9135,2.9298,0,0,0,0,0,2.9061,2.9053,2.909,2.9054,2.9059,2.9097,2.9095,2.9124,2.9136,2.9141,2.916,2.9169,2.9163,2.9157,2.9152,2.9105,2.911,2.9079,2.9068,2.9059,2.9052,2.9028,2.9015,2.9157,2.9157,2.9157,0,0,2.9013,2.9036,2.9027,2.9038,2.905,2.9038,2.9101,2.9085,2.9077,2.9138,2.9113,2.9127,2.9141,2.9103,2.9087,2.9111,2.9015,2.9052,2.9044,2.9042,2.9021,2.9007,2.8995,2.9153,2.9153,2.9154,0,0,2.8921,2.8938,2.891,2.8922,2.8942,2.8968,2.8961,2.899,2.9003,2.8979,2.9025,2.9015,2.9001,2.9009,2.9011,2.8925,2.8958,2.8922,2.8862,2.8839,2.8827,2.8818,2.8786,2.8774,2.8915,2.8915,2.8915,0,2.8858,2.8845,2.889,2.8873,2.8876,2.8934,2.8905,2.8914,2.893,2.8929,2.8958,2.8944,2.8957,2.8922,2.8901,2.8901,2.8894,2.8918,2.8826,2.8817,2.8808,2.8778,2.8766,2.8911,2.8911,2.8912,2.8912,0,2.8767,2.8756,2.8731,2.8749,2.8749,2.8725,2.8766,2.876,2.879,2.8813,2.8788,2.8806,2.8807,2.8801,2.8828,2.8769,2.8784,2.8818,2.8866,2.8789,2.8762,2.8751,2.8904,2.8906,2.8907,2.8908,0,0,2.8618,2.8664,2.8654,2.8663,2.869,2.8682,2.8661,2.8665,2.8659,2.8668,2.8651,2.864,2.8673,2.8676,2.8704,2.8684,2.8613,2.8721,2.8722,2.8699,2.855,2.8523,2.8509,2.8637,2.8635,2.8633,2.8549,0,2.8531,2.8501,2.8542,2.8501,2.8493,2.8549,2.8532,2.8545,2.8567,2.8561,2.8584,2.8575,2.8619,2.8621,2.8604,2.8626,2.8584,2.8633,2.8619,2.8618,2.8613,2.8495,2.8466,2.8385,2.8538,2.8536,2.8535,0,2.8424,2.8432,2.8391,2.8423,2.8421,2.8404,2.8411,2.8406,2.8422,2.8439,2.8444,2.8479,2.846,2.8508,2.8481,2.8514,2.8511,2.8521,2.8519,2.8518,2.8571,2.8489,2.836,2.8347,2.8519,2.852,2.8521,0,2.8319,2.8319,2.8296,2.8302,2.8338,2.8325,2.8339,2.8358,2.8358,2.8364,2.8364,2.8367,2.8367,2.8368,2.8403,2.8435,2.8371,2.8423,2.8383,2.8382,2.8365,2.8365,2.8233,2.8366,2.8366,2.8366,2.8366,0,2.8216,2.8189,2.8249,2.8234,2.8205,2.8253,2.8223,2.8242,2.8259,2.8248,2.8297,2.8285,2.8333,2.8325,2.8352,2.8326,2.8325,2.8337,2.8345,2.8332,2.8331,2.833,2.8336,2.8363,2.8364,2.8364,2.8365,0,2.8093,2.8133,2.8111,2.8148,2.8157,2.8134,2.8165,2.8152,2.8178,2.8163,2.8162,2.8202,2.8196,2.8232,2.8231,2.8249,2.8209,2.8226,2.8204,2.8208,2.8167,2.817,2.8027,2.8011,2.8155,2.8154,2.8153,0,2.8024,2.8005,2.8042,2.8039,2.8052,2.8046,2.8048,2.8094,2.8093,2.8112,2.8096,2.8095,2.8097,2.8084,2.8111,2.8111,2.8128,2.8079,2.8128,2.8117,2.8126,2.8127,2.8125,2.8067,2.8065,2.8064,2.8063,0,2.7897,2.7919,2.792,2.7929,2.793,2.7938,2.7949,2.7943,2.7994,2.799,2.7986,2.7988,2.7989,2.7987,2.7993,2.8005,2.8041,2.8048,2.8038,2.8024,2.8012,2.8018,2.8174,2.805,2.8051,2.8052,2.8053,2.8053,2.7799,2.7785,2.7809,2.7809,2.7823,2.7833,2.7823,2.785,2.7848,2.7855,2.7882,2.7873,2.7891,2.7904,2.7913,2.7906,2.7929,2.7916,2.7912,2.7908,2.79,2.8015,2.7907,2.7907,2.7908,2.7908,2.7908,0,2.7674,2.7693,2.7693,2.7709,2.7709,2.7747,2.7762,2.7758,2.7751,2.7766,2.7768,2.7763,2.7762,2.7791,2.7793,2.7781,2.7798,2.778,2.778,2.7782,2.7879,2.7887,2.7766,2.7766,2.7766,2.7766,2.7766,2.7766,2.7609,2.7587,2.7612,2.7598,2.7617,2.7611,2.7616,2.7625,2.7638,2.7632,2.7632,2.7652,2.7672,2.7676,2.7676,2.7685,2.7682,2.7659,2.7672,2.7762,2.7775,2.7788,2.7796,2.7658,2.7658,2.7576,2.7575,2.7574]}]]